SCP
0 0 0 0 0 0 0 0 0 0 0 0 0 0 0 0 0 0 0 0 0 0 0 0 0 0 0 0 0 1 0 0 0 0 0 0 -0 0 0 0 0 0 0 0 0 0 -0 0 0 1 0 0 0 0
0 0 0 0 0 0 0 0 0 0 0 0 0 0 0 0 0 0 0 0 0 0 0 0 0 0 0 0 1 2 1 1 1 1 0 0 0 0 0 0 0 0 1 1 0 1 1 0 0 0 0 0 1 1
0 0 0 0 0 0 0 0 0 0 0 0 0 0 0 0 0 0 0 0 0 0 0 0 0 0 0 0 0 1 2 2 1 1 1 1 1 0 0 0 0 0 0 0 1 0 0 -0 -0 -0 0 1 1 0
0 0 0 0 0 0 0 0 0 0 0 0 0 0 0 0 0 0 0 0 0 0 0 0 0 0 0 0 0 0 0 1 1 1 0 0 1 0 0 0 0 0 0 0 0 0 0 0 0 -0 0 0 0 0
0 0 0 0 0 0 0 0 0 0 0 0 0 0 0 0 0 0 0 0 0 0 0 0 0 0 0 0 0 0 0 1 0 0 0 0 0 0 0 0 0 0 0 0 1 1 2 -0 0 -0 1 0 0 1
0 0 0 0 0 0 0 0 0 0 0 0 0 0 0 0 0 0 0 0 0 0 0 0 0 0 0 0 0 0 0 0 0 0 0 0 1 0 0 0 0 0 0 0 0 2 1 1 1 0 0 0 0 0
0 0 0 0 0 0 0 0 0 0 0 0 0 0 0 0 0 0 0 0 0 0 0 0 0 0 0 0 0 0 0 0 0 0 0 0 0 0 0 0 0 0 0 0 0 -0 0 0 0 0 0 0 0 0
0 0 0 0 0 0 0 0 0 0 0 0 0 0 0 0 0 0 0 0 0 0 0 0 0 0 0 0 0 0 0 0 0 0 0 0 0 0 0 0 0 0 0 -0 0 -0 1 0 0 0 0 0 1 1
0 0 0 0 0 0 0 0 0 0 0 0 0 0 0 0 0 0 0 0 0 0 0 0 0 0 0 -0 -0 0 0 0 0 0 0 0 0 0 0 0 0 0 1 0 0 0 0 0 0 0 0 0 1 1
0 0 0 0 0 0 0 0 0 0 0 0 0 0 0 0 0 0 0 0 0 0 0 0 0 0 0 -0 0 0 0 0 0 0 0 0 0 0 0 0 1 0 0 0 0 0 0 0 0 0 0 1 1 1
0 0 0 0 0 0 0 0 0 0 0 0 0 0 0 0 0 0 0 0 0 0 0 0 0 0 0 0 0 0 0 0 0 0 0 0 0 1 0 0 0 0 0 0 0 0 0 0 0 0 0 0 1 1
0 0 0 0 0 0 0 0 0 0 0 0 0 0 0 0 0 0 0 0 0 0 0 0 0 0 0 0 0 0 0 0 0 0 0 0 0 0 0 0 0 0 0 -0 0 0 0 0 -0 -0 0 0 0 0
0 0 0 0 0 0 0 0 0 0 0 0 0 0 0 0 0 0 0 0 0 0 0 0 0 0 0 0 0 0 0 0 0 0 0 0 0 0 0 0 0 0 0 0 0 0 0 0 0 0 0 0 0 0
0 0 0 0 0 0 0 0 0 0 0 0 0 0 0 0 0 0 0 0 0 0 0 0 0 0 0 0 0 0 0 0 0 0 0 0 0 0 0 0 0 0 0 0 0 0 0 0 0 0 0 0 0 0
0 0 0 0 0 0 0 0 0 0 0 0 0 0 0 0 0 0 0 0 0 0 0 0 0 0 0 0 0 0 0 0 0 0 0 1 0 1 0 0 0 0 0 0 0 0 0 0 0 0 0 0 0 0
0 0 0 0 0 0 0 0 0 0 0 0 0 0 0 0 0 0 0 0 0 0 0 0 0 0 0 0 0 0 0 0 0 0 0 1 1 1 1 0 0 0 0 0 0 0 0 0 0 0 0 0 0 0
0 0 0 0 0 0 0 0 0 0 0 0 0 0 0 0 0 0 0 0 0 0 0 0 0 0 0 0 0 0 0 0 0 0 0 0 0 0 0 0 0 0 0 0 0 0 0 0 0 0 0 0 0 0
0 0 0 0 0 0 0 0 0 0 0 0 0 0 0 0 0 0 0 0 0 0 0 0 0 0 0 0 0 0 0 0 0 0 -0 0 0 0 0 0 0 0 0 0 0 0 1 1 0 0 0 0 0 0
0 0 0 0 0 0 0 0 0 0 0 0 0 0 0 0 0 0 0 0 0 0 0 0 0 0 0 0 0 0 0 0 0 0 0 -0 -0 0 0 0 0 0 0 0 0 0 0 0 0 0 0 0 0 0
0 0 0 0 0 0 0 0 0 0 0 0 0 0 0 0 0 0 0 0 0 0 0 0 0 0 0 0 0 0 0 0 0 0 0 0 0 0 0 0 0 0 0 0 0 0 0 0 0 0 0 0 0 0
0 0 0 0 0 0 0 0 0 0 0 0 0 0 0 0 0 0 0 0 0 0 0 0 0 0 0 0 0 0 0 0 0 0 0 0 0 0 0 0 0 0 0 0 0 0 0 0 0 0 0 0 0 0
0 0 0 0 0 0 0 0 0 0 0 0 0 0 0 0 0 0 0 0 0 0 0 0 0 0 0 0 0 0 0 0 0 0 0 0 0 0 0 0 0 0 -0 0 0 0 0 0 0 0 0 0 0 0
0 0 0 0 0 0 0 0 0 0 0 0 0 0 0 0 0 0 0 0 0 0 0 0 0 0 0 0 0 0 0 0 0 0 0 0 0 0 0 0 0 0 0 0 0 0 0 0 0 0 0 0 0 0
0 0 0 0 0 0 0 0 0 0 0 0 0 0 0 0 0 0 0 0 0 0 0 0 0 0 0 0 0 0 0 0 0 0 0 0 0 0 0 0 0 0 0 0 0 0 0 0 0 0 0 -0 -0 0
0 0 0 0 0 0 0 0 0 0 0 0 0 0 0 0 0 0 0 0 0 0 0 0 0 0 0 0 0 0 0 0 0 0 0 0 0 0 0 0 0 0 0 0 0 0 0 0 0 0 0 0 0 0
0 0 0 0 0 0 0 0 0 0 0 0 0 0 0 0 0 0 0 0 0 0 0 0 0 0 0 0 0 0 0 0 0 0 0 0 0 0 0 0 0 0 0 0 0 0 0 0 0 0 0 0 0 0
0 0 0 0 0 0 0 0 0 0 0 0 0 0 0 0 0 0 0 0 0 0 0 0 0 0 0 0 0 0 0 0 0 0 0 0 0 0 0 0 0 0 0 0 0 0 0 0 0 0 0 0 0 0
0 0 0 0 0 0 0 0 0 0 0 0 0 0 0 0 0 0 0 0 0 0 0 0 0 0 0 0 0 0 0 0 0 0 0 0 0 0 0 0 0 0 0 0 0 0 0 0 0 0 0 0 0 0
0 0 0 0 0 0 0 0 0 0 0 0 0 0 0 0 0 0 0 0 0 0 0 0 0 0 0 0 0 0 0 0 0 0 0 0 0 0 0 0 0 0 0 0 0 0 0 0 0 0 0 0 0 0
-0 -0 0 0 0 0 0 0 0 0 0 0 0 0 0 0 0 0 0 0 0 0 0 0 0 0 0 0 0 0 0 0 0 0 0 0 0 0 0 0 0 0 0 0 0 0 0 0 0 0 0 0 0 0
0 0 -0 -0 -0 -0 -0 -0 0 -0 0 0 0 0 0 0 0 0 0 0 0 0 0 0 0 0 0 0 0 0 0 0 0 0 0 0 0 0 0 0 0 0 0 0 0 0 0 0 0 0 0 0 0 0
-0 -0 0 0 0 0 0 0 0 0 0 0 0 -0 -0 -0 0 0 0 0 0 0 0 0 -0 0 0 0 0 0 0 0 0 0 0 0 0 0 0 0 0 0 0 0 0 0 0 0 0 0 0 0 0 0
0 0 -0 0 0 -0 -0 0 0 0 -0 -0 -0 -0 -0 0 0 0 0 0 0 0 0 0 0 0 0 0 0 0 0 0 0 0 0 0 0 0 0 0 0 0 0 0 0 0 0 0 0 0 0 0 0 0
Wind_Speed_500mb
38 42 49 53 52 51 48 44 43 39 34 33 32 29 28 31 31 34 8 23 21 24 33 12 9 13 16 10 15 9 12 9 12 17 20 22 22 10 16 23 18 17 14 6 9 13 18 15 9 16 26 31 4 10
39 45 51 52 53 51 49 45 42 39 34 32 31 27 26 33 34 31 8 16 26 20 17 7 8 7 5 10 13 13 11 7 7 9 16 17 18 3 6 5 31 24 20 21 13 9 33 25 53 29 21 9 6 13
40 44 56 49 54 52 48 44 42 38 33 32 30 27 24 27 34 34 6 11 14 19 32 31 23 25 12 6 5 10 8 13 4 10 16 12 14 8 6 7 20 33 17 6 28 17 36 42 35 38 23 11 14 11
42 44 61 55 56 52 49 45 41 37 33 31 29 26 23 25 30 30 8 9 13 13 21 23 22 17 15 9 4 4 10 15 17 18 27 16 19 17 14 12 20 12 21 16 18 24 31 59 59 80 28 15 20 16
50 62 62 59 58 54 49 44 40 36 32 30 28 25 23 24 26 22 6 7 15 6 11 11 24 27 18 14 11 8 9 14 17 27 19 15 35 17 20 19 8 40 9 6 9 16 15 24 11 52 27 23 24 24
67 72 65 61 59 55 50 44 39 35 31 29 28 26 23 25 25 15 11 8 15 9 10 11 12 30 23 19 15 14 13 16 20 25 26 29 6 15 7 4 37 77 43 57 49 5 15 15 21 20 23 20 21 22
74 79 70 63 60 56 50 44 39 35 30 28 27 25 23 22 26 10 3 7 13 13 9 11 16 24 25 26 24 22 21 20 27 27 29 35 18 15 13 13 52 8 16 26 23 59 5 16 13 12 17 20 24 27
76 75 68 66 61 56 49 43 38 34 30 26 25 23 22 20 12 10 8 4 6 9 11 9 5 14 22 23 26 25 30 28 27 26 31 25 17 17 13 28 40 15 19 23 59 43 11 22 14 9 16 15 20 27
86 73 70 67 61 55 49 43 38 33 29 26 24 22 19 18 10 15 12 5 6 10 9 13 12 3 21 28 25 17 17 19 27 30 34 30 17 17 11 16 32 23 17 10 21 2 15 17 21 13 15 16 19 21
75 73 70 65 60 54 48 42 37 34 30 29 30 10 12 19 14 9 5 5 7 12 10 17 30 8 18 27 13 14 15 13 14 18 30 20 19 26 30 23 14 16 23 25 21 14 21 31 20 7 17 20 17 24
76 71 67 62 57 51 46 41 37 35 33 31 13 5 12 24 14 9 12 14 18 12 18 30 29 7 6 9 7 6 3 8 8 12 7 8 18 20 15 12 13 18 23 27 27 11 7 4 3 3 11 25 27 29
76 70 65 59 53 48 44 41 40 37 19 18 12 17 16 10 11 12 9 11 9 15 21 33 22 7 5 6 4 9 8 5 7 4 6 9 13 5 8 13 16 16 21 26 27 4 10 39 38 38 30 31 33 34
72 67 62 56 50 45 42 40 44 30 30 19 10 12 11 10 5 11 15 13 12 11 12 12 12 11 5 8 9 7 8 7 7 5 10 8 15 9 7 9 7 7 13 10 8 9 8 22 5 34 38 35 36 36
69 63 57 50 45 41 39 37 39 35 29 12 13 7 7 10 12 11 17 19 16 17 19 20 25 15 16 14 10 7 8 5 7 10 5 14 13 9 7 9 4 5 2 2 5 7 8 5 30 31 32 34 35 35
63 57 50 45 41 37 36 35 35 28 5 10 11 8 14 17 25 11 19 17 11 13 12 13 8 18 11 6 8 6 5 7 9 15 17 16 9 8 6 8 11 3 1 3 4 9 15 16 19 25 26 28 28 30
59 52 44 42 38 35 33 32 37 11 2 1 6 8 27 17 11 4 9 17 6 10 9 11 9 7 12 9 12 11 10 11 3 25 28 15 12 8 7 8 8 13 7 1 4 8 13 20 24 25 25 25 25 26
55 50 43 40 37 36 34 23 12 3 1 5 9 5 19 13 21 24 12 21 7 12 13 12 9 9 8 10 16 10 15 4 21 24 23 13 8 8 9 8 5 3 3 5 5 9 16 20 25 27 29 27 26 26
48 45 41 40 39 38 33 19 7 4 8 5 10 6 11 20 16 14 10 3 8 19 17 1 7 8 8 10 13 10 27 11 24 24 22 5 6 8 6 6 8 6 7 8 9 12 19 25 29 30 30 29 28 27
55 42 34 39 40 25 9 6 8 1 5 13 9 10 2 4 13 14 7 3 4 6 3 4 6 10 11 5 15 21 33 27 14 3 13 9 5 3 5 5 7 7 7 9 12 16 20 26 28 31 28 29 30 27
54 52 41 32 26 11 9 7 7 2 6 4 8 9 8 9 12 11 10 6 8 10 11 6 11 8 18 19 17 17 7 12 21 12 5 12 11 10 3 7 8 4 9 13 16 21 23 24 28 28 28 32 31 33
50 48 45 40 28 16 6 5 3 4 3 5 13 12 8 4 10 15 17 15 13 17 17 17 24 10 17 9 8 6 2 2 6 12 19 18 23 22 23 15 9 14 25 31 34 35 31 28 30 32 34 34 35 33
34 35 33 17 12 9 5 4 3 3 3 5 7 10 10 14 17 18 14 13 20 23 24 9 4 12 8 8 7 4 7 12 10 12 17 20 20 24 29 21 25 26 34 52 45 27 53 23 27 28 32 43 30 28
34 30 20 10 8 4 2 4 4 7 7 10 7 7 10 10 14 7 8 17 23 20 17 13 7 3 7 4 4 11 14 16 19 21 23 26 24 26 29 27 29 30 25 27 25 16 11 30 30 32 36 35 39 23
17 9 7 7 7 5 12 5 8 6 6 12 10 8 11 14 10 10 13 27 24 17 21 17 17 20 20 22 26 26 26 24 25 26 26 28 30 32 32 33 33 36 38 33 31 36 32 23 22 27 35 26 33 34
6 7 8 2 5 10 10 15 9 11 7 11 12 8 9 12 9 13 15 27 36 31 30 19 19 22 24 25 25 25 21 23 27 30 30 30 33 37 40 40 41 43 42 42 43 44 43 40 42 42 35 36 32 37
4 5 6 6 11 9 9 10 16 14 7 13 11 9 9 7 6 8 12 28 22 13 10 9 18 22 20 19 21 21 21 20 22 27 29 31 35 39 43 46 48 46 43 47 48 47 45 44 43 42 44 45 33 54
3 7 7 4 11 6 7 9 13 16 10 11 9 11 8 9 9 9 13 15 9 2 4 9 13 17 20 23 24 23 22 20 20 25 29 31 33 35 39 43 47 47 47 45 46 45 44 42 44 42 44 43 45 45
3 7 9 10 12 2 3 5 9 8 11 11 11 13 8 9 7 3 6 12 7 2 7 13 16 19 22 24 25 23 22 20 21 25 31 31 26 28 21 24 25 29 31 25 35 41 43 43 43 40 37 36 37 37
7 8 11 9 4 2 6 10 11 10 15 18 16 18 26 16 11 14 4 3 8 12 16 22 25 25 29 27 24 26 29 33 36 37 36 38 37 36 32 30 28 28 27 28 30 24 23 24 24 28 40 38 37 37
6 13 7 6 11 11 14 15 17 19 23 26 26 27 30 31 32 31 30 29 29 28 26 27 28 30 33 34 36 35 32 31 31 39 37 38 41 39 40 38 36 32 32 33 34 32 34 35 32 33 36 40 45 44
7 6 12 15 17 18 20 20 20 21 23 24 28 32 33 31 30 28 26 27 29 32 30 32 32 32 33 35 38 41 44 41 43 44 44 44 43 44 45 46 46 44 43 45 48 48 46 45 45 45 46 48 46 43
10 14 19 21 24 22 22 24 27 28 32 34 32 32 34 35 34 34 29 29 33 34 33 31 28 25 24 25 27 30 33 34 37 38 39 36 34 36 38 40 46 46 45 45 48 51 52 50 50 44 47 47 34 19
12 17 21 17 18 25 28 27 30 33 32 36 39 39 40 40 37 31 26 17 16 18 15 9 14 16 20 24 28 29 29 29 28 31 36 40 40 41 43 45 46 48 49 50 51 51 49 45 43 43 51 54 49 38
Wind_Direction_500mb
219 211 205 202 201 200 199 197 196 196 194 197 199 200 199 195 187 182 240 253 215 268 280 256 312 299 318 268 261 12 183 185 228 230 256 255 263 292 308 340 344 238 254 200 111 246 254 7 329 115 236 268 49 60
221 207 195 199 198 197 197 195 194 194 191 191 194 194 195 195 188 184 233 259 225 240 326 286 255 264 320 344 339 302 305 309 356 276 224 263 279 7 356 344 360 334 27 334 315 269 204 231 230 226 240 264 34 72
217 208 197 204 198 194 195 193 192 191 187 187 188 188 189 189 189 187 201 232 227 249 266 253 245 234 245 277 305 291 25 358 325 341 314 305 311 130 142 199 180 249 64 357 332 113 182 198 216 224 171 146 108 94
209 196 201 206 196 192 192 191 189 188 185 183 182 181 181 180 181 185 203 240 208 265 249 254 187 163 201 214 243 301 312 318 307 298 282 278 283 322 302 319 227 261 141 182 232 287 314 49 55 341 85 134 121 102
194 190 197 203 192 189 189 187 185 185 183 179 177 176 175 172 170 165 188 224 209 240 317 229 187 207 204 209 221 252 295 321 303 279 256 265 274 343 1 342 332 311 17 303 341 10 29 149 222 197 119 95 84 72
187 183 193 195 188 186 185 184 181 182 181 178 176 175 173 175 172 144 198 219 217 228 291 245 178 174 203 209 219 240 269 286 279 277 279 275 141 107 58 323 317 298 39 34 357 63 81 87 104 102 113 113 114 104
183 183 185 188 185 183 182 181 178 178 179 176 175 176 175 174 173 230 357 203 196 201 245 258 170 189 203 213 229 242 250 263 263 268 265 261 275 183 181 199 240 123 26 339 313 295 145 130 148 135 120 112 99 94
181 182 180 183 182 180 179 178 176 174 174 173 170 170 173 177 189 205 229 202 184 172 247 263 118 157 190 211 223 226 243 241 239 253 268 271 262 260 264 275 283 276 175 107 207 238 284 162 163 149 123 113 104 102
178 176 178 178 178 176 176 175 173 170 168 164 158 151 152 167 196 191 225 208 207 197 270 254 261 160 168 215 222 180 231 244 239 239 240 258 266 254 263 354 305 293 355 320 312 236 204 204 200 158 131 129 117 116
168 172 172 174 174 174 174 173 170 165 161 154 147 140 179 177 203 164 166 183 205 210 244 261 263 173 202 206 197 236 187 236 240 224 234 245 264 287 290 294 345 322 301 302 289 255 229 220 154 119 127 122 139 134
167 168 169 172 173 172 172 170 166 160 156 157 177 174 139 158 149 188 204 215 192 200 213 238 266 135 235 346 267 320 42 247 231 250 224 249 246 34 3 325 285 283 290 269 276 297 121 48 147 227 164 139 141 141
163 166 168 170 172 170 170 168 163 156 168 179 138 121 132 171 199 190 213 210 210 208 184 209 219 224 201 296 200 191 258 247 265 77 250 257 87 46 330 317 307 285 275 264 256 235 320 155 150 163 148 152 150 144
162 165 167 169 170 170 170 169 164 159 167 146 135 166 189 162 143 201 194 186 211 192 145 173 178 186 196 238 259 156 237 265 263 266 265 53 79 64 11 339 334 280 267 116 149 111 103 134 151 139 148 151 148 146
159 161 163 166 168 169 170 170 171 161 150 182 168 6 189 187 199 204 210 211 211 170 154 186 202 201 215 180 241 210 260 310 281 248 6 67 52 39 16 349 90 28 347 166 116 195 204 239 166 147 154 155 153 150
154 156 159 162 166 168 168 166 164 154 173 211 176 190 207 193 185 100 82 89 79 126 149 211 213 200 205 230 215 219 188 243 233 254 99 101 76 56 22 7 354 356 198 165 172 193 142 126 142 151 160 160 158 153
152 151 155 157 160 161 161 160 165 116 8 251 253 229 200 192 151 149 194 120 145 177 166 218 223 189 232 216 201 215 213 241 193 83 95 75 51 41 35 12 331 335 76 100 233 155 155 166 168 170 172 173 168 167
152 147 152 151 150 148 141 117 141 123 152 207 215 280 173 203 175 190 188 112 174 213 196 207 228 188 248 216 237 219 244 138 97 80 68 17 7 8 14 4 349 293 238 212 201 181 175 172 172 179 184 184 182 180
146 142 145 147 147 145 142 116 99 152 193 160 168 132 22 53 66 96 65 70 215 220 232 93 14 220 195 238 236 218 128 152 112 117 176 143 30 15 347 307 297 266 231 223 211 193 183 184 188 194 194 192 191 193
157 161 147 146 145 123 90 57 61 234 136 170 78 109 82 112 40 80 106 229 291 16 354 221 231 240 231 318 27 44 31 74 96 10 148 120 94 27 350 313 260 251 241 227 216 209 207 205 205 203 202 206 207 209
151 163 164 158 150 97 61 34 88 14 159 174 190 173 201 209 187 204 204 208 204 202 209 241 247 307 87 60 45 59 46 1 347 332 313 85 54 4 268 304 351 203 251 232 231 223 218 213 220 219 216 219 221 224
152 148 153 163 141 89 82 21 134 59 89 231 193 186 211 188 217 222 221 210 220 228 229 223 234 131 111 108 64 62 38 54 314 329 356 325 342 319 307 291 268 277 317 294 228 217 214 224 233 230 234 231 227 234
120 168 170 148 73 62 54 14 53 135 230 113 159 221 197 214 221 217 223 213 233 231 238 315 61 99 133 172 139 37 334 340 321 305 297 296 293 291 304 326 327 311 301 307 304 294 326 287 279 317 249 272 217 228
98 98 94 89 84 90 201 126 163 175 184 173 163 216 223 223 210 164 232 233 237 233 247 244 261 286 307 350 287 288 292 286 282 279 277 279 285 289 299 299 303 298 277 285 290 261 283 288 324 242 273 293 265 258
90 78 79 107 132 133 147 164 166 178 178 177 195 198 215 229 234 210 245 245 244 235 226 226 251 262 268 267 266 266 267 265 269 271 270 272 274 277 279 285 288 293 304 313 303 304 309 287 261 285 288 272 253 261
64 65 98 45 148 151 157 159 183 175 192 188 184 222 216 198 238 234 236 244 235 238 246 225 240 250 258 267 271 272 274 271 273 277 276 277 281 284 287 287 288 288 291 291 290 292 292 291 293 299 299 294 284 288
87 148 188 132 154 164 173 171 184 190 207 185 194 200 213 200 237 246 224 235 243 243 230 259 269 271 275 278 282 280 280 280 284 283 282 283 284 286 288 290 290 288 289 294 306 313 311 301 296 289 281 277 297 294
200 132 171 122 137 169 204 192 180 194 201 199 194 188 199 219 236 240 236 244 263 260 276 276 291 282 280 282 282 281 278 278 286 285 288 289 287 287 287 288 291 290 291 293 296 299 302 300 297 302 304 304 299 300
23 78 135 168 125 193 285 214 199 222 211 200 209 209 206 209 227 306 176 139 147 263 285 288 293 286 284 281 277 281 279 280 279 282 285 287 280 294 295 304 289 296 296 298 298 292 292 291 292 299 307 309 311 308
160 163 154 155 111 90 247 238 236 237 219 233 240 239 245 243 239 270 303 256 269 273 283 287 285 281 276 280 276 278 278 275 279 286 286 289 290 286 297 308 307 314 303 290 291 291 290 299 305 313 310 306 304 305
176 179 212 230 196 213 218 225 246 250 248 251 254 252 254 258 258 261 269 274 277 279 281 280 279 280 283 286 287 286 285 281 277 280 280 284 291 294 292 295 292 295 299 298 293 294 283 296 302 294 298 305 300 299
280 229 228 237 253 258 254 248 243 254 263 258 253 265 262 256 257 254 255 259 266 270 275 278 281 282 284 284 285 288 285 281 283 288 291 293 293 291 291 289 292 294 289 285 289 292 290 288 288 291 292 293 293 295
244 253 262 267 264 270 271 261 256 249 245 240 242 251 256 256 252 258 261 264 263 263 261 255 262 271 284 282 281 282 281 285 283 285 287 289 290 290 289 286 285 293 292 287 287 285 287 288 288 294 297 302 286 285
282 263 258 268 272 263 258 275 270 263 263 262 257 253 251 248 247 251 251 251 243 223 233 262 282 293 299 296 292 288 291 295 295 295 296 297 296 294 291 292 291 288 286 284 277 277 284 291 290 289 299 297 287 282
Wind_Speed_850mb
38 42 49 53 52 51 48 44 43 39 34 33 32 29 28 31 31 34 8 23 21 24 33 12 9 13 16 10 15 9 12 9 12 17 20 22 22 10 16 23 18 17 14 6 9 13 18 15 9 16 26 31 4 10
39 45 51 52 53 51 49 45 42 39 34 32 31 27 26 33 34 31 8 16 26 20 17 7 8 7 5 10 13 13 11 7 7 9 16 17 18 3 6 5 31 24 20 21 13 9 33 25 53 29 21 9 6 13
40 44 56 49 54 52 48 44 42 38 33 32 30 27 24 27 34 34 6 11 14 19 32 31 23 25 12 6 5 10 8 13 4 10 16 12 14 8 6 7 20 33 17 6 28 17 36 42 35 38 23 11 14 11
42 44 61 55 56 52 49 45 41 37 33 31 29 26 23 25 30 30 8 9 13 13 21 23 22 17 15 9 4 4 10 15 17 18 27 16 19 17 14 12 20 12 21 16 18 24 31 59 59 80 28 15 20 16
50 62 62 59 58 54 49 44 40 36 32 30 28 25 23 24 26 22 6 7 15 6 11 11 24 27 18 14 11 8 9 14 17 27 19 15 35 17 20 19 8 40 9 6 9 16 15 24 11 52 27 23 24 24
67 72 65 61 59 55 50 44 39 35 31 29 28 26 23 25 25 15 11 8 15 9 10 11 12 30 23 19 15 14 13 16 20 25 26 29 6 15 7 4 37 77 43 57 49 5 15 15 21 20 23 20 21 22
74 79 70 63 60 56 50 44 39 35 30 28 27 25 23 22 26 10 3 7 13 13 9 11 16 24 25 26 24 22 21 20 27 27 29 35 18 15 13 13 52 8 16 26 23 59 5 16 13 12 17 20 24 27
76 75 68 66 61 56 49 43 38 34 30 26 25 23 22 20 12 10 8 4 6 9 11 9 5 14 22 23 26 25 30 28 27 26 31 25 17 17 13 28 40 15 19 23 59 43 11 22 14 9 16 15 20 27
86 73 70 67 61 55 49 43 38 33 29 26 24 22 19 18 10 15 12 5 6 10 9 13 12 3 21 28 25 17 17 19 27 30 34 30 17 17 11 16 32 23 17 10 21 2 15 17 21 13 15 16 19 21
75 73 70 65 60 54 48 42 37 34 30 29 30 10 12 19 14 9 5 5 7 12 10 17 30 8 18 27 13 14 15 13 14 18 30 20 19 26 30 23 14 16 23 25 21 14 21 31 20 7 17 20 17 24
76 71 67 62 57 51 46 41 37 35 33 31 13 5 12 24 14 9 12 14 18 12 18 30 29 7 6 9 7 6 3 8 8 12 7 8 18 20 15 12 13 18 23 27 27 11 7 4 3 3 11 25 27 29
76 70 65 59 53 48 44 41 40 37 19 18 12 17 16 10 11 12 9 11 9 15 21 33 22 7 5 6 4 9 8 5 7 4 6 9 13 5 8 13 16 16 21 26 27 4 10 39 38 38 30 31 33 34
72 67 62 56 50 45 42 40 44 30 30 19 10 12 11 10 5 11 15 13 12 11 12 12 12 11 5 8 9 7 8 7 7 5 10 8 15 9 7 9 7 7 13 10 8 9 8 22 5 34 38 35 36 36
69 63 57 50 45 41 39 37 39 35 29 12 13 7 7 10 12 11 17 19 16 17 19 20 25 15 16 14 10 7 8 5 7 10 5 14 13 9 7 9 4 5 2 2 5 7 8 5 30 31 32 34 35 35
63 57 50 45 41 37 36 35 35 28 5 10 11 8 14 17 25 11 19 17 11 13 12 13 8 18 11 6 8 6 5 7 9 15 17 16 9 8 6 8 11 3 1 3 4 9 15 16 19 25 26 28 28 30
59 52 44 42 38 35 33 32 37 11 2 1 6 8 27 17 11 4 9 17 6 10 9 11 9 7 12 9 12 11 10 11 3 25 28 15 12 8 7 8 8 13 7 1 4 8 13 20 24 25 25 25 25 26
55 50 43 40 37 36 34 23 12 3 1 5 9 5 19 13 21 24 12 21 7 12 13 12 9 9 8 10 16 10 15 4 21 24 23 13 8 8 9 8 5 3 3 5 5 9 16 20 25 27 29 27 26 26
48 45 41 40 39 38 33 19 7 4 8 5 10 6 11 20 16 14 10 3 8 19 17 1 7 8 8 10 13 10 27 11 24 24 22 5 6 8 6 6 8 6 7 8 9 12 19 25 29 30 30 29 28 27
55 42 34 39 40 25 9 6 8 1 5 13 9 10 2 4 13 14 7 3 4 6 3 4 6 10 11 5 15 21 33 27 14 3 13 9 5 3 5 5 7 7 7 9 12 16 20 26 28 31 28 29 30 27
54 52 41 32 26 11 9 7 7 2 6 4 8 9 8 9 12 11 10 6 8 10 11 6 11 8 18 19 17 17 7 12 21 12 5 12 11 10 3 7 8 4 9 13 16 21 23 24 28 28 28 32 31 33
50 48 45 40 28 16 6 5 3 4 3 5 13 12 8 4 10 15 17 15 13 17 17 17 24 10 17 9 8 6 2 2 6 12 19 18 23 22 23 15 9 14 25 31 34 35 31 28 30 32 34 34 35 33
34 35 33 17 12 9 5 4 3 3 3 5 7 10 10 14 17 18 14 13 20 23 24 9 4 12 8 8 7 4 7 12 10 12 17 20 20 24 29 21 25 26 34 52 45 27 53 23 27 28 32 43 30 28
34 30 20 10 8 4 2 4 4 7 7 10 7 7 10 10 14 7 8 17 23 20 17 13 7 3 7 4 4 11 14 16 19 21 23 26 24 26 29 27 29 30 25 27 25 16 11 30 30 32 36 35 39 23
17 9 7 7 7 5 12 5 8 6 6 12 10 8 11 14 10 10 13 27 24 17 21 17 17 20 20 22 26 26 26 24 25 26 26 28 30 32 32 33 33 36 38 33 31 36 32 23 22 27 35 26 33 34
6 7 8 2 5 10 10 15 9 11 7 11 12 8 9 12 9 13 15 27 36 31 30 19 19 22 24 25 25 25 21 23 27 30 30 30 33 37 40 40 41 43 42 42 43 44 43 40 42 42 35 36 32 37
4 5 6 6 11 9 9 10 16 14 7 13 11 9 9 7 6 8 12 28 22 13 10 9 18 22 20 19 21 21 21 20 22 27 29 31 35 39 43 46 48 46 43 47 48 47 45 44 43 42 44 45 33 54
3 7 7 4 11 6 7 9 13 16 10 11 9 11 8 9 9 9 13 15 9 2 4 9 13 17 20 23 24 23 22 20 20 25 29 31 33 35 39 43 47 47 47 45 46 45 44 42 44 42 44 43 45 45
3 7 9 10 12 2 3 5 9 8 11 11 11 13 8 9 7 3 6 12 7 2 7 13 16 19 22 24 25 23 22 20 21 25 31 31 26 28 21 24 25 29 31 25 35 41 43 43 43 40 37 36 37 37
7 8 11 9 4 2 6 10 11 10 15 18 16 18 26 16 11 14 4 3 8 12 16 22 25 25 29 27 24 26 29 33 36 37 36 38 37 36 32 30 28 28 27 28 30 24 23 24 24 28 40 38 37 37
6 13 7 6 11 11 14 15 17 19 23 26 26 27 30 31 32 31 30 29 29 28 26 27 28 30 33 34 36 35 32 31 31 39 37 38 41 39 40 38 36 32 32 33 34 32 34 35 32 33 36 40 45 44
7 6 12 15 17 18 20 20 20 21 23 24 28 32 33 31 30 28 26 27 29 32 30 32 32 32 33 35 38 41 44 41 43 44 44 44 43 44 45 46 46 44 43 45 48 48 46 45 45 45 46 48 46 43
10 14 19 21 24 22 22 24 27 28 32 34 32 32 34 35 34 34 29 29 33 34 33 31 28 25 24 25 27 30 33 34 37 38 39 36 34 36 38 40 46 46 45 45 48 51 52 50 50 44 47 47 34 19
12 17 21 17 18 25 28 27 30 33 32 36 39 39 40 40 37 31 26 17 16 18 15 9 14 16 20 24 28 29 29 29 28 31 36 40 40 41 43 45 46 48 49 50 51 51 49 45 43 43 51 54 49 38
Wind_Direction_850mb
219 211 205 202 201 200 199 197 196 196 194 197 199 200 199 195 187 182 240 253 215 268 280 256 312 299 318 268 261 12 183 185 228 230 256 255 263 292 308 340 344 238 254 200 111 246 254 7 329 115 236 268 49 60
221 207 195 199 198 197 197 195 194 194 191 191 194 194 195 195 188 184 233 259 225 240 326 286 255 264 320 344 339 302 305 309 356 276 224 263 279 7 356 344 360 334 27 334 315 269 204 231 230 226 240 264 34 72
217 208 197 204 198 194 195 193 192 191 187 187 188 188 189 189 189 187 201 232 227 249 266 253 245 234 245 277 305 291 25 358 325 341 314 305 311 130 142 199 180 249 64 357 332 113 182 198 216 224 171 146 108 94
209 196 201 206 196 192 192 191 189 188 185 183 182 181 181 180 181 185 203 240 208 265 249 254 187 163 201 214 243 301 312 318 307 298 282 278 283 322 302 319 227 261 141 182 232 287 314 49 55 341 85 134 121 102
194 190 197 203 192 189 189 187 185 185 183 179 177 176 175 172 170 165 188 224 209 240 317 229 187 207 204 209 221 252 295 321 303 279 256 265 274 343 1 342 332 311 17 303 341 10 29 149 222 197 119 95 84 72
187 183 193 195 188 186 185 184 181 182 181 178 176 175 173 175 172 144 198 219 217 228 291 245 178 174 203 209 219 240 269 286 279 277 279 275 141 107 58 323 317 298 39 34 357 63 81 87 104 102 113 113 114 104
183 183 185 188 185 183 182 181 178 178 179 176 175 176 175 174 173 230 357 203 196 201 245 258 170 189 203 213 229 242 250 263 263 268 265 261 275 183 181 199 240 123 26 339 313 295 145 130 148 135 120 112 99 94
181 182 180 183 182 180 179 178 176 174 174 173 170 170 173 177 189 205 229 202 184 172 247 263 118 157 190 211 223 226 243 241 239 253 268 271 262 260 264 275 283 276 175 107 207 238 284 162 163 149 123 113 104 102
178 176 178 178 178 176 176 175 173 170 168 164 158 151 152 167 196 191 225 208 207 197 270 254 261 160 168 215 222 180 231 244 239 239 240 258 266 254 263 354 305 293 355 320 312 236 204 204 200 158 131 129 117 116
168 172 172 174 174 174 174 173 170 165 161 154 147 140 179 177 203 164 166 183 205 210 244 261 263 173 202 206 197 236 187 236 240 224 234 245 264 287 290 294 345 322 301 302 289 255 229 220 154 119 127 122 139 134
167 168 169 172 173 172 172 170 166 160 156 157 177 174 139 158 149 188 204 215 192 200 213 238 266 135 235 346 267 320 42 247 231 250 224 249 246 34 3 325 285 283 290 269 276 297 121 48 147 227 164 139 141 141
163 166 168 170 172 170 170 168 163 156 168 179 138 121 132 171 199 190 213 210 210 208 184 209 219 224 201 296 200 191 258 247 265 77 250 257 87 46 330 317 307 285 275 264 256 235 320 155 150 163 148 152 150 144
162 165 167 169 170 170 170 169 164 159 167 146 135 166 189 162 143 201 194 186 211 192 145 173 178 186 196 238 259 156 237 265 263 266 265 53 79 64 11 339 334 280 267 116 149 111 103 134 151 139 148 151 148 146
159 161 163 166 168 169 170 170 171 161 150 182 168 6 189 187 199 204 210 211 211 170 154 186 202 201 215 180 241 210 260 310 281 248 6 67 52 39 16 349 90 28 347 166 116 195 204 239 166 147 154 155 153 150
154 156 159 162 166 168 168 166 164 154 173 211 176 190 207 193 185 100 82 89 79 126 149 211 213 200 205 230 215 219 188 243 233 254 99 101 76 56 22 7 354 356 198 165 172 193 142 126 142 151 160 160 158 153
152 151 155 157 160 161 161 160 165 116 8 251 253 229 200 192 151 149 194 120 145 177 166 218 223 189 232 216 201 215 213 241 193 83 95 75 51 41 35 12 331 335 76 100 233 155 155 166 168 170 172 173 168 167
152 147 152 151 150 148 141 117 141 123 152 207 215 280 173 203 175 190 188 112 174 213 196 207 228 188 248 216 237 219 244 138 97 80 68 17 7 8 14 4 349 293 238 212 201 181 175 172 172 179 184 184 182 180
146 142 145 147 147 145 142 116 99 152 193 160 168 132 22 53 66 96 65 70 215 220 232 93 14 220 195 238 236 218 128 152 112 117 176 143 30 15 347 307 297 266 231 223 211 193 183 184 188 194 194 192 191 193
157 161 147 146 145 123 90 57 61 234 136 170 78 109 82 112 40 80 106 229 291 16 354 221 231 240 231 318 27 44 31 74 96 10 148 120 94 27 350 313 260 251 241 227 216 209 207 205 205 203 202 206 207 209
151 163 164 158 150 97 61 34 88 14 159 174 190 173 201 209 187 204 204 208 204 202 209 241 247 307 87 60 45 59 46 1 347 332 313 85 54 4 268 304 351 203 251 232 231 223 218 213 220 219 216 219 221 224
152 148 153 163 141 89 82 21 134 59 89 231 193 186 211 188 217 222 221 210 220 228 229 223 234 131 111 108 64 62 38 54 314 329 356 325 342 319 307 291 268 277 317 294 228 217 214 224 233 230 234 231 227 234
120 168 170 148 73 62 54 14 53 135 230 113 159 221 197 214 221 217 223 213 233 231 238 315 61 99 133 172 139 37 334 340 321 305 297 296 293 291 304 326 327 311 301 307 304 294 326 287 279 317 249 272 217 228
98 98 94 89 84 90 201 126 163 175 184 173 163 216 223 223 210 164 232 233 237 233 247 244 261 286 307 350 287 288 292 286 282 279 277 279 285 289 299 299 303 298 277 285 290 261 283 288 324 242 273 293 265 258
90 78 79 107 132 133 147 164 166 178 178 177 195 198 215 229 234 210 245 245 244 235 226 226 251 262 268 267 266 266 267 265 269 271 270 272 274 277 279 285 288 293 304 313 303 304 309 287 261 285 288 272 253 261
64 65 98 45 148 151 157 159 183 175 192 188 184 222 216 198 238 234 236 244 235 238 246 225 240 250 258 267 271 272 274 271 273 277 276 277 281 284 287 287 288 288 291 291 290 292 292 291 293 299 299 294 284 288
87 148 188 132 154 164 173 171 184 190 207 185 194 200 213 200 237 246 224 235 243 243 230 259 269 271 275 278 282 280 280 280 284 283 282 283 284 286 288 290 290 288 289 294 306 313 311 301 296 289 281 277 297 294
200 132 171 122 137 169 204 192 180 194 201 199 194 188 199 219 236 240 236 244 263 260 276 276 291 282 280 282 282 281 278 278 286 285 288 289 287 287 287 288 291 290 291 293 296 299 302 300 297 302 304 304 299 300
23 78 135 168 125 193 285 214 199 222 211 200 209 209 206 209 227 306 176 139 147 263 285 288 293 286 284 281 277 281 279 280 279 282 285 287 280 294 295 304 289 296 296 298 298 292 292 291 292 299 307 309 311 308
160 163 154 155 111 90 247 238 236 237 219 233 240 239 245 243 239 270 303 256 269 273 283 287 285 281 276 280 276 278 278 275 279 286 286 289 290 286 297 308 307 314 303 290 291 291 290 299 305 313 310 306 304 305
176 179 212 230 196 213 218 225 246 250 248 251 254 252 254 258 258 261 269 274 277 279 281 280 279 280 283 286 287 286 285 281 277 280 280 284 291 294 292 295 292 295 299 298 293 294 283 296 302 294 298 305 300 299
280 229 228 237 253 258 254 248 243 254 263 258 253 265 262 256 257 254 255 259 266 270 275 278 281 282 284 284 285 288 285 281 283 288 291 293 293 291 291 289 292 294 289 285 289 292 290 288 288 291 292 293 293 295
244 253 262 267 264 270 271 261 256 249 245 240 242 251 256 256 252 258 261 264 263 263 261 255 262 271 284 282 281 282 281 285 283 285 287 289 290 290 289 286 285 293 292 287 287 285 287 288 288 294 297 302 286 285
282 263 258 268 272 263 258 275 270 263 263 262 257 253 251 248 247 251 251 251 243 223 233 262 282 293 299 296 292 288 291 295 295 295 296 297 296 294 291 292 291 288 286 284 277 277 284 291 290 289 299 297 287 282